Location: Eurasberg
(48.3353°N, 11.0839°E)
Time: 13:24:14
(UTC+00:00)

Timation 1 Rocket - Pass Details

Date: 18 April 2026
Orbit: 895 x 908 km, 70.0° (Epoch: 14 May)

Event Time Altitude Azimuth Distance (km) Brightness Sun altitude
Exits shadow 01:12:04 49° 269° (W) 1,163 4.6 -25.5°
Maximum altitude 01:13:07 55° 305° (NW) 1,084 4.7 -25.4°
Drops below altitude 10° 01:19:02 10° 24° (NNE) 2,603 7.8 -24.8°
Sets 01:21:37 0° 28° (NNE) 3,548 8.8 -24.6°
